Simultaneous Nadir Overpasses (SNOs) Predictions

Prediction of SNOs between LANDSAT-8 and NOAA-19 Satellite Orbit:

Table of predicted SNOs for the next 14.0 days since TLE Epoch: 3/29/2025
Index Date (LANDSAT-8) Time (LANDSAT-8) Lat,Lon (LANDSAT-8) SZA (LANDSAT-8 ) Date (NOAA-19) Time (NOAA-19) Lat,Lon (NOAA-19) SZA (NOAA-19 ) Distance(km) Time Diff (sec)
1 03/30/2025 17:06:48 79.28, -54.59 75.89 03/30/2025 17:06:29 79.27, -54.68 75.88 1.95 19
2 03/30/2025 17:56:10 -79.47, 114.36 103.85 03/30/2025 17:57:16 -79.48, 114.40 103.82 1.02 66
3 04/02/2025 00:19:24 -79.35, 17.71 104.89 04/02/2025 00:19:32 -79.35, 17.81 104.87 2.17 8
4 04/04/2025 06:42:39 -79.16, -79.30 106.00 04/04/2025 06:41:50 -79.15, -79.34 106.02 0.95 49
5 04/04/2025 07:31:59 79.39, 89.80 74.30 04/04/2025 07:32:46 79.38, 89.81 74.32 0.14 47
6 04/06/2025 13:55:13 79.21, -7.13 73.21 04/06/2025 13:55:03 79.21, -7.18 73.21 0.88 10
7 04/06/2025 14:44:02 -80.55, 171.34 104.74 04/06/2025 14:45:16 -80.32, 172.05 104.84 28.79 74
8 04/08/2025 20:18:25 79.08,-103.69 72.21 04/08/2025 20:17:18 79.08,-103.68 72.19 0.40 67
9 04/08/2025 21:07:47 -79.29, 65.25 107.52 04/08/2025 21:08:05 -79.30, 65.33 107.51 1.65 18
10 04/11/2025 03:31:00 -79.11, -31.70 108.60 04/11/2025 03:30:22 -79.10, -31.75 108.62 1.46 38



Historial Predications of SNOs between LANDSAT-8 and NOAA-19
